| time (UTC) | temp C | wind direction | speed KPH | gust KPH | rain 1hr cm | rain 24hr cm | rain mn cm | humidity % | barometer mb |
| 20260510072856 | 21 | 89 | 0.0 | 1.6 | 0.00 | 0.03 | 0.00 | 90 | 1008.9 |
| 20260510072834 | 22 | 89 | 0.0 | 0.0 | 0.00 | 0.00 | 0.00 | 90 | 1010.2 |
| 20260510072355 | 22 | 89 | 0.0 | 1.6 | 0.00 | 0.03 | 0.00 | 91 | 1009.1 |
| 20260510072333 | 22 | 89 | 0.0 | 0.0 | 0.00 | 0.00 | 0.00 | 91 | 1010.2 |
| 20260510071855 | 22 | 88 | 0.0 | 1.6 | 0.00 | 0.03 | 0.00 | 91 | 1009.1 |
| 20260510071835 | 22 | 79 | 0.0 | 1.6 | 0.00 | 0.00 | 0.00 | 91 | 1010.2 |
| 20260510071354 | 22 | 78 | 0.0 | 1.6 | 0.00 | 0.03 | 0.00 | 91 | 1009.0 |
| 20260510071334 | 22 | 78 | 0.0 | 0.0 | 0.00 | 0.00 | 0.00 | 91 | 1010.2 |
| 20260510070853 | 22 | 61 | 0.0 | 1.6 | 0.00 | 0.03 | 0.00 | 91 | 1009.1 |
| 20260510070833 | 22 | 57 | 0.0 | 1.6 | 0.00 | 0.00 | 0.00 | 91 | 1010.2 |
| 20260510070359 | 22 | 23 | 0.0 | 1.6 | 0.00 | 0.03 | 0.00 | 91 | 1009.1 |
| 20260510070334 | 22 | 22 | 0.0 | 1.6 | 0.00 | 0.00 | 0.00 | 91 | 1010.2 |
| 20260510065832 | 22 | 22 | 0.0 | 1.6 | 0.00 | 0.00 | 0.00 | 90 | 1010.2 |
| 20260510065349 | 22 | 22 | 0.0 | 3.2 | 0.00 | 0.03 | 0.00 | 90 | 1009.0 |
| 20260510065331 | 22 | 91 | 0.0 | 0.0 | 0.00 | 0.00 | 0.00 | 90 | 1010.2 |
| 20260510064831 | 22 | 91 | 0.0 | 3.2 | 0.00 | 0.00 | 0.00 | 90 | 1010.2 |
| 20260510064346 | 22 | 68 | 0.0 | 0.0 | 0.00 | 0.03 | 0.00 | 89 | 1009.0 |
| 20260510064332 | 22 | 68 | 0.0 | 0.0 | 0.00 | 0.00 | 0.00 | 89 | 1010.2 |
| 20260510063843 | 22 | 68 | 0.0 | 1.6 | 0.00 | 0.03 | 0.00 | 89 | 1009.1 |
| 20260510063834 | 22 | 68 | 0.0 | 0.0 | 0.00 | 0.00 | 0.00 | 89 | 1010.2 |
| 20260510063340 | 22 | 68 | 0.0 | 1.6 | 0.00 | 0.03 | 0.00 | 89 | 1009.1 |
| 20260510063331 | 22 | 68 | 0.0 | 1.6 | 0.00 | 0.00 | 0.00 | 89 | 1010.2 |
| 20260510062839 | 22 | 67 | 0.0 | 1.6 | 0.00 | 0.03 | 0.00 | 88 | 1009.0 |
| 20260510062832 | 22 | 67 | 0.0 | 1.6 | 0.00 | 0.00 | 0.00 | 88 | 1010.2 |
| 20260510062337 | 22 | 68 | 0.0 | 3.2 | 0.00 | 0.03 | 0.00 | 88 | 1009.1 |
| 20260510062332 | 22 | 68 | 0.0 | 1.6 | 0.00 | 0.00 | 0.00 | 88 | 1010.2 |
| 20260510061836 | 22 | 69 | 0.0 | 3.2 | 0.00 | 0.03 | 0.00 | 88 | 1009.2 |
| 20260510061833 | 22 | 65 | 0.0 | 3.2 | 0.00 | 0.00 | 0.00 | 88 | 1010.2 |
| 20260510061335 | 22 | 94 | 0.0 | 3.2 | 0.00 | 0.03 | 0.00 | 88 | 1009.3 |
| 20260510061331 | 23 | 94 | 0.0 | 1.6 | 0.00 | 0.00 | 0.00 | 88 | 1010.5 |
| 20260510060834 | 23 | 93 | 1.6 | 3.2 | 0.00 | 0.00 | 0.00 | 88 | 1010.2 |
| 20260510060332 | 23 | 88 | 3.2 | 3.2 | 0.00 | 0.00 | 0.00 | 88 | 1010.5 |
| 20260510060325 | 23 | 69 | 0.0 | 3.2 | 0.00 | 0.03 | 0.00 | 88 | 1009.2 |
| 20260510055830 | 23 | 224 | 0.0 | 0.0 | 0.00 | 0.00 | 0.00 | 87 | 1010.2 |
| 20260510055825 | 23 | 224 | 0.0 | 0.0 | 0.00 | 0.03 | 0.00 | 87 | 1009.1 |
| 20260510055331 | 23 | 224 | 0.0 | 0.0 | 0.00 | 0.00 | 0.00 | 87 | 1010.2 |
| 20260510055326 | 23 | 224 | 0.0 | 1.6 | 0.00 | 0.03 | 0.00 | 87 | 1009.1 |
| 20260510054830 | 23 | 225 | 0.0 | 1.6 | 0.00 | 0.00 | 0.00 | 87 | 1010.2 |
| 20260510054825 | 23 | 225 | 0.0 | 1.6 | 0.00 | 0.03 | 0.00 | 87 | 1009.1 |
| 20260510054331 | 23 | 228 | 0.0 | 1.6 | 0.00 | 0.00 | 0.00 | 86 | 1010.2 |
| 20260510054326 | 23 | 228 | 0.0 | 1.6 | 0.00 | 0.03 | 0.00 | 86 | 1009.1 |
| 20260510053831 | 23 | 220 | 0.0 | 0.0 | 0.00 | 0.00 | 0.00 | 86 | 1010.2 |
| 20260510053331 | 23 | 220 | 0.0 | 1.6 | 0.00 | 0.00 | 0.00 | 86 | 1010.2 |
| 20260510053325 | 23 | 220 | 0.0 | 1.6 | 0.00 | 0.03 | 0.00 | 86 | 1009.1 |
| 20260510052832 | 23 | 220 | 0.0 | 0.0 | 0.00 | 0.00 | 0.00 | 85 | 1010.2 |
| 20260510052824 | 23 | 220 | 0.0 | 0.0 | 0.00 | 0.03 | 0.00 | 85 | 1009.0 |
| 20260510052330 | 23 | 220 | 0.0 | 0.0 | 0.00 | 0.00 | 0.00 | 85 | 1010.2 |
| 20260510052323 | 23 | 220 | 0.0 | 1.6 | 0.00 | 0.03 | 0.00 | 85 | 1008.9 |
| 20260510051830 | 23 | 221 | 0.0 | 0.0 | 0.00 | 0.00 | 0.00 | 84 | 1010.2 |
| 20260510051823 | 23 | 220 | 0.0 | 1.6 | 0.00 | 0.03 | 0.00 | 84 | 1008.9 |
| 20260510051331 | 23 | 241 | 0.0 | 1.6 | 0.00 | 0.00 | 0.00 | 84 | 1010.2 |
| 20260510051324 | 23 | 241 | 0.0 | 1.6 | 0.00 | 0.03 | 0.00 | 84 | 1008.8 |
| 20260510050829 | 23 | 242 | 0.0 | 0.0 | 0.00 | 0.00 | 0.00 | 83 | 1009.8 |
| 20260510050825 | 23 | 242 | 0.0 | 1.6 | 0.00 | 0.03 | 0.00 | 83 | 1008.7 |
| 20260510050329 | 23 | 242 | 0.0 | 0.0 | 0.00 | 0.00 | 0.00 | 82 | 1009.8 |
| 20260510045830 | 24 | 242 | 0.0 | 1.6 | 0.00 | 0.00 | 0.03 | 82 | 1009.8 |
| 20260510045823 | 24 | 242 | 1.6 | 6.4 | 0.00 | 0.03 | 0.03 | 82 | 1008.6 |
| 20260510045329 | 24 | 225 | 1.6 | 4.8 | 0.00 | 0.00 | 0.03 | 82 | 1009.5 |
| 20260510045322 | 24 | 232 | 3.2 | 8.0 | 0.00 | 0.03 | 0.03 | 82 | 1008.3 |
| 20260510044830 | 24 | 219 | 3.2 | 8.0 | 0.00 | 0.00 | 0.03 | 82 | 1009.5 |
| 20260510044820 | 24 | 254 | 1.6 | 8.0 | 0.00 | 0.03 | 0.03 | 82 | 1008.4 |
| 20260510044328 | 24 | 236 | 1.6 | 3.2 | 0.00 | 0.00 | 0.03 | 81 | 1009.5 |
| 20260510043829 | 24 | 227 | 0.0 | 1.6 | 0.00 | 0.00 | 0.03 | 81 | 1009.8 |
| 20260510043819 | 24 | 227 | 0.0 | 3.2 | 0.00 | 0.03 | 0.03 | 81 | 1008.5 |
| 20260510043328 | 24 | 215 | 0.0 | 1.6 | 0.00 | 0.00 | 0.03 | 81 | 1009.8 |
| 20260510043316 | 24 | 215 | 0.0 | 1.6 | 0.00 | 0.03 | 0.03 | 81 | 1008.6 |
| 20260510042829 | 24 | 215 | 0.0 | 0.0 | 0.00 | 0.00 | 0.03 | 80 | 1009.8 |
| 20260510042816 | 24 | 215 | 0.0 | 1.6 | 0.00 | 0.03 | 0.03 | 80 | 1008.7 |
| 20260510042327 | 24 | 215 | 0.0 | 1.6 | 0.00 | 0.00 | 0.03 | 79 | 1009.8 |
| 20260510041829 | 24 | 215 | 0.0 | 0.0 | 0.00 | 0.00 | 0.03 | 79 | 1009.8 |
| 20260510041329 | 25 | 234 | 0.0 | 1.6 | 0.00 | 0.00 | 0.03 | 78 | 1009.8 |
| 20260510041316 | 24 | 234 | 0.0 | 3.2 | 0.00 | 0.03 | 0.03 | 78 | 1008.6 |
| 20260510040828 | 25 | 234 | 0.0 | 3.2 | 0.00 | 0.00 | 0.03 | 77 | 1009.5 |
| 20260510040818 | 25 | 234 | 0.0 | 3.2 | 0.00 | 0.03 | 0.03 | 77 | 1008.4 |
| 20260510040328 | 25 | 228 | 0.0 | 1.6 | 0.00 | 0.00 | 0.03 | 77 | 1009.5 |
| 20260510040316 | 25 | 231 | 0.0 | 1.6 | 0.00 | 0.03 | 0.03 | 77 | 1008.4 |
| 20260510035828 | 25 | 198 | 0.0 | 0.0 | 0.00 | 0.00 | 0.03 | 76 | 1009.5 |
| 20260510035816 | 25 | 198 | 0.0 | 1.6 | 0.00 | 0.03 | 0.03 | 76 | 1008.5 |
| 20260510035327 | 25 | 197 | 0.0 | 0.0 | 0.00 | 0.00 | 0.03 | 76 | 1009.5 |
| 20260510035316 | 25 | 197 | 0.0 | 1.6 | 0.00 | 0.03 | 0.03 | 76 | 1008.4 |
| 20260510034827 | 25 | 251 | 0.0 | 1.6 | 0.00 | 0.00 | 0.03 | 75 | 1009.5 |
| 20260510034326 | 25 | 209 | 0.0 | 0.0 | 0.00 | 0.00 | 0.03 | 75 | 1009.5 |
| 20260510033827 | 25 | 209 | 0.0 | 0.0 | 0.00 | 0.00 | 0.03 | 75 | 1009.5 |
| 20260510033814 | 25 | 209 | 0.0 | 0.0 | 0.00 | 0.03 | 0.03 | 75 | 1008.3 |
| 20260510033327 | 25 | 223 | 0.0 | 0.0 | 0.00 | 0.00 | 0.03 | 75 | 1009.1 |
| 20260510033313 | 25 | 223 | 0.0 | 1.6 | 0.00 | 0.03 | 0.03 | 75 | 1008.2 |
| 20260510032829 | 25 | 224 | 0.0 | 1.6 | 0.00 | 0.00 | 0.03 | 75 | 1009.1 |
| 20260510032815 | 25 | 224 | 0.0 | 1.6 | 0.00 | 0.03 | 0.03 | 75 | 1008.2 |
| 20260510032326 | 25 | 169 | 0.0 | 0.0 | 0.00 | 0.00 | 0.03 | 75 | 1009.5 |
| 20260510032313 | 25 | 169 | 0.0 | 1.6 | 0.00 | 0.03 | 0.03 | 75 | 1008.2 |
| 20260510031826 | 25 | 145 | 0.0 | 0.0 | 0.00 | 0.00 | 0.03 | 75 | 1009.1 |
| 20260510031813 | 25 | 145 | 0.0 | 1.6 | 0.00 | 0.03 | 0.03 | 75 | 1008.2 |
| 20260510031326 | 25 | 143 | 0.0 | 0.0 | 0.00 | 0.00 | 0.03 | 75 | 1009.1 |
| 20260510031314 | 25 | 143 | 0.0 | 1.6 | 0.00 | 0.03 | 0.03 | 75 | 1008.0 |
| 20260510030825 | 25 | 143 | 0.0 | 0.0 | 0.00 | 0.00 | 0.03 | 75 | 1009.1 |
| 20260510030810 | 25 | 143 | 0.0 | 1.6 | 0.00 | 0.03 | 0.03 | 75 | 1007.9 |
| 20260510030325 | 25 | 143 | 0.0 | 0.0 | 0.00 | 0.00 | 0.03 | 75 | 1009.1 |
| 20260510030311 | 25 | 143 | 0.0 | 1.6 | 0.00 | 0.03 | 0.03 | 75 | 1007.9 |
| 20260510025825 | 25 | 143 | 0.0 | 0.0 | 0.00 | 0.00 | 0.03 | 75 | 1008.8 |
| 20260510025809 | 25 | 143 | 0.0 | 1.6 | 0.00 | 0.03 | 0.03 | 75 | 1007.8 |
| 20260510025342 | 26 | 244 | 0.0 | 1.6 | 0.00 | 0.00 | 0.03 | 75 | 1008.8 |
| 20260510025310 | 26 | 244 | 0.0 | 1.6 | 0.00 | 0.03 | 0.03 | 75 | 1007.6 |
| 20260510024924 | 26 | 244 | 0.0 | 0.0 | 0.00 | 0.00 | 0.03 | 74 | 1008.8 |
| 20260510024426 | 26 | 244 | 0.0 | 0.0 | 0.00 | 0.00 | 0.03 | 73 | 1008.5 |
| 20260510024310 | 26 | 244 | 0.0 | 1.6 | 0.00 | 0.03 | 0.03 | 73 | 1007.4 |
| 20260510023925 | 26 | 244 | 0.0 | 0.0 | 0.00 | 0.00 | 0.03 | 73 | 1008.5 |
| 20260510023809 | 26 | 244 | 0.0 | 3.2 | 0.00 | 0.03 | 0.03 | 73 | 1007.4 |
| 20260510023428 | 26 | 243 | 0.0 | 1.6 | 0.00 | 0.00 | 0.03 | 72 | 1008.5 |
| 20260510023310 | 26 | 244 | 0.0 | 3.2 | 0.00 | 0.03 | 0.03 | 72 | 1007.1 |
| 20260510022925 | 26 | 223 | 0.0 | 0.0 | 0.00 | 0.00 | 0.03 | 72 | 1008.1 |
| 20260510022810 | 26 | 223 | 0.0 | 6.4 | 0.00 | 0.03 | 0.03 | 72 | 1007.0 |
| 20260510022425 | 26 | 223 | 0.0 | 1.6 | 0.00 | 0.00 | 0.03 | 72 | 1008.1 |
| 20260510022307 | 26 | 223 | 1.6 | 8.0 | 0.00 | 0.03 | 0.03 | 71 | 1006.8 |
| 20260510021924 | 26 | 241 | 3.2 | 8.0 | 0.00 | 0.00 | 0.03 | 71 | 1007.8 |
| 20260510021806 | 26 | 225 | 1.6 | 9.7 | 0.00 | 0.03 | 0.03 | 71 | 1006.8 |
| 20260510021424 | 26 | 213 | 3.2 | 4.8 | 0.00 | 0.00 | 0.03 | 72 | 1007.8 |
| 20260510020925 | 26 | 199 | 1.6 | 9.7 | 0.00 | 0.00 | 0.03 | 71 | 1007.8 |
| 20260510020426 | 27 | 231 | 0.0 | 1.6 | 0.00 | 0.00 | 0.03 | 72 | 1007.8 |
| 20260510020307 | 27 | 237 | 0.0 | 3.2 | 0.00 | 0.03 | 0.03 | 71 | 1006.6 |
| 20260510015924 | 27 | 231 | 0.0 | 1.6 | 0.00 | 0.00 | 0.03 | 71 | 1007.8 |
| 20260510015424 | 27 | 202 | 0.0 | 4.8 | 0.00 | 0.00 | 0.03 | 71 | 1007.5 |
| 20260510014924 | 27 | 232 | 0.0 | 4.8 | 0.00 | 0.00 | 0.03 | 71 | 1007.5 |
| 20260510014806 | 27 | 230 | 3.2 | 9.7 | 0.00 | 0.03 | 0.03 | 71 | 1006.2 |
| 20260510014424 | 27 | 229 | 3.2 | 9.7 | 0.00 | 0.00 | 0.03 | 71 | 1007.1 |
| 20260510014308 | 27 | 221 | 3.2 | 9.7 | 0.00 | 0.03 | 0.03 | 71 | 1006.0 |
| 20260510013923 | 27 | 177 | 3.2 | 4.8 | 0.00 | 0.00 | 0.03 | 71 | 1007.5 |
| 20260510013802 | 27 | 207 | 3.2 | 12.9 | 0.00 | 0.03 | 0.03 | 71 | 1006.2 |
| 20260510013421 | 27 | 194 | 0.0 | 4.8 | 0.00 | 0.00 | 0.03 | 71 | 1007.5 |
| 20260510012922 | 27 | 200 | 3.2 | 4.8 | 0.00 | 0.00 | 0.03 | 71 | 1007.5 |
| 20260510012803 | 27 | 193 | 1.6 | 6.4 | 0.00 | 0.03 | 0.03 | 71 | 1006.2 |
| 20260510012423 | 28 | 249 | 0.0 | 4.8 | 0.00 | 0.00 | 0.03 | 71 | 1007.5 |
| 20260510012302 | 28 | 233 | 1.6 | 4.8 | 0.00 | 0.03 | 0.03 | 71 | 1006.5 |
| 20260510011924 | 28 | 232 | 0.0 | 4.8 | 0.00 | 0.00 | 0.03 | 70 | 1007.8 |
| 20260510011424 | 28 | 196 | 0.0 | 0.0 | 0.00 | 0.00 | 0.03 | 70 | 1007.8 |
| 20260510011302 | 28 | 194 | 1.6 | 3.2 | 0.00 | 0.03 | 0.03 | 70 | 1006.6 |
| 20260510010922 | 28 | 199 | 1.6 | 1.6 | 0.00 | 0.00 | 0.03 | 69 | 1007.8 |
| 20260510010801 | 28 | 199 | 1.6 | 3.2 | 0.00 | 0.03 | 0.03 | 69 | 1006.6 |
| 20260510010423 | 28 | 231 | 1.6 | 3.2 | 0.00 | 0.00 | 0.03 | 69 | 1007.8 |
| 20260510010303 | 28 | 258 | 1.6 | 4.8 | 0.00 | 0.03 | 0.03 | 69 | 1006.6 |
| 20260510005922 | 29 | 184 | 1.6 | 3.2 | 0.00 | 0.00 | 0.03 | 68 | 1007.8 |
| 20260510005802 | 29 | 200 | 1.6 | 6.4 | 0.00 | 0.03 | 0.03 | 68 | 1006.6 |
| 20260510005422 | 29 | 279 | 3.2 | 6.4 | 0.00 | 0.00 | 0.03 | 67 | 1007.8 |
| 20260510005258 | 29 | 245 | 1.6 | 8.0 | 0.00 | 0.03 | 0.03 | 67 | 1006.5 |
| 20260510004921 | 30 | 246 | 1.6 | 4.8 | 0.00 | 0.00 | 0.03 | 67 | 1007.8 |
| 20260510004758 | 29 | 188 | 1.6 | 8.0 | 0.00 | 0.03 | 0.03 | 67 | 1006.5 |
| 20260510004424 | 30 | 245 | 0.0 | 3.2 | 0.00 | 0.00 | 0.03 | 67 | 1007.8 |
| 20260510003922 | 30 | 158 | 1.6 | 4.8 | 0.00 | 0.00 | 0.03 | 67 | 1007.8 |
| 20260510003757 | 30 | 200 | 3.2 | 8.0 | 0.00 | 0.03 | 0.03 | 67 | 1006.6 |
| 20260510003421 | 30 | 194 | 0.0 | 8.0 | 0.00 | 0.00 | 0.03 | 66 | 1007.8 |
| 20260510003258 | 30 | 229 | 3.2 | 8.0 | 0.00 | 0.03 | 0.03 | 66 | 1006.5 |
| 20260510002922 | 31 | 213 | 3.2 | 8.0 | 0.00 | 0.00 | 0.03 | 65 | 1007.5 |
| 20260510002757 | 31 | 228 | 3.2 | 11.3 | 0.00 | 0.03 | 0.03 | 65 | 1006.4 |
| 20260510002422 | 31 | 195 | 6.4 | 8.0 | 0.00 | 0.00 | 0.03 | 64 | 1007.5 |
| 20260510002258 | 31 | 209 | 3.2 | 11.3 | 0.00 | 0.03 | 0.03 | 63 | 1006.3 |
| 20260510001921 | 32 | 229 | 6.4 | 8.0 | 0.00 | 0.00 | 0.03 | 61 | 1007.5 |
| 20260510001758 | 32 | 196 | 1.6 | 8.0 | 0.00 | 0.03 | 0.03 | 60 | 1006.0 |
| 20260510001421 | 32 | 166 | 1.6 | 6.4 | 0.00 | 0.00 | 0.03 | 60 | 1007.1 |
| 20260510001258 | 32 | 205 | 0.0 | 6.4 | 0.00 | 0.03 | 0.03 | 60 | 1005.9 |
| 20260510000920 | 32 | 227 | 0.0 | 1.6 | 0.00 | 0.00 | 0.03 | 59 | 1007.1 |
| 20260510000421 | 32 | 236 | 0.0 | 1.6 | 0.00 | 0.00 | 0.03 | 58 | 1007.1 |
| 20260510000256 | 32 | 236 | 0.0 | 4.8 | 0.00 | 0.03 | 0.03 | 58 | 1005.9 |
| 20260509235922 | 32 | 50 | 0.0 | 1.6 | 0.00 | 0.00 | 0.03 | 58 | 1006.8 |
| 20260509235753 | 32 | 50 | 0.0 | 4.8 | 0.00 | 0.03 | 0.03 | 58 | 1005.8 |
| 20260509235419 | 32 | 332 | 0.0 | 1.6 | 0.00 | 0.00 | 0.03 | 57 | 1006.8 |
| 20260509235253 | 32 | 44 | 0.0 | 4.8 | 0.00 | 0.03 | 0.03 | 57 | 1005.6 |
| 20260509234919 | 32 | 48 | 1.6 | 1.6 | 0.00 | 0.00 | 0.03 | 57 | 1006.8 |
| 20260509234753 | 33 | 48 | 0.0 | 3.2 | 0.00 | 0.03 | 0.03 | 57 | 1005.7 |
| 20260509234419 | 33 | 48 | 0.0 | 3.2 | 0.00 | 0.00 | 0.03 | 56 | 1006.8 |
| 20260509234254 | 33 | 48 | 0.0 | 3.2 | 0.00 | 0.03 | 0.03 | 56 | 1005.6 |
| 20260509233922 | 33 | 181 | 0.0 | 1.6 | 0.00 | 0.00 | 0.03 | 56 | 1006.8 |
| 20260509233754 | 33 | 205 | 0.0 | 1.6 | 0.00 | 0.03 | 0.03 | 56 | 1005.5 |
| 20260509233419 | 33 | 172 | 0.0 | 1.6 | 0.00 | 0.00 | 0.03 | 54 | 1006.8 |
| 20260509233255 | 33 | 166 | 0.0 | 3.2 | 0.00 | 0.03 | 0.03 | 54 | 1005.6 |
| 20260509232919 | 33 | 148 | 0.0 | 3.2 | 0.00 | 0.00 | 0.03 | 54 | 1006.8 |
| 20260509232753 | 33 | 68 | 0.0 | 3.2 | 0.00 | 0.03 | 0.03 | 53 | 1005.6 |
| 20260509232420 | 33 | 131 | 0.0 | 1.6 | 0.00 | 0.00 | 0.03 | 54 | 1006.8 |
| 20260509232250 | 33 | 146 | 0.0 | 1.6 | 0.00 | 0.03 | 0.03 | 55 | 1005.6 |
| 20260509231918 | 33 | 95 | 0.0 | 1.6 | 0.00 | 0.00 | 0.03 | 54 | 1006.8 |
| 20260509231750 | 33 | 96 | 0.0 | 1.6 | 0.00 | 0.03 | 0.03 | 54 | 1005.6 |
| 20260509231418 | 33 | 100 | 0.0 | 1.6 | 0.00 | 0.00 | 0.03 | 53 | 1006.8 |
| 20260509231250 | 33 | 100 | 0.0 | 1.6 | 0.00 | 0.03 | 0.03 | 52 | 1005.6 |
| 20260509230919 | 33 | 115 | 0.0 | 1.6 | 0.00 | 0.00 | 0.03 | 54 | 1006.8 |
| 20260509230749 | 33 | 113 | 0.0 | 1.6 | 0.00 | 0.03 | 0.03 | 54 | 1005.6 |
| 20260509230418 | 34 | 184 | 0.0 | 1.6 | 0.00 | 0.00 | 0.03 | 54 | 1006.8 |
| 20260509230250 | 33 | 32 | 0.0 | 1.6 | 0.00 | 0.03 | 0.03 | 53 | 1005.6 |
| 20260509225917 | 34 | 228 | 1.6 | 1.6 | 0.00 | 0.00 | 0.03 | 53 | 1006.8 |
| 20260509225750 | 34 | 261 | 0.0 | 3.2 | 0.00 | 0.03 | 0.03 | 53 | 1005.6 |
| 20260509225418 | 34 | 183 | 1.6 | 1.6 | 0.00 | 0.00 | 0.03 | 53 | 1006.8 |
| 20260509225249 | 34 | 58 | 0.0 | 3.2 | 0.00 | 0.03 | 0.03 | 53 | 1005.6 |
| 20260509224916 | 34 | 200 | 0.0 | 1.6 | 0.00 | 0.00 | 0.03 | 54 | 1006.4 |
| 20260509224749 | 34 | 200 | 0.0 | 4.8 | 0.00 | 0.03 | 0.03 | 54 | 1005.5 |
| 20260509224417 | 34 | 238 | 0.0 | 3.2 | 0.00 | 0.00 | 0.03 | 53 | 1006.8 |
| 20260509224250 | 34 | 237 | 1.6 | 4.8 | 0.00 | 0.03 | 0.03 | 52 | 1005.5 |
| 20260509223919 | 34 | 302 | 0.0 | 4.8 | 0.00 | 0.00 | 0.03 | 52 | 1006.8 |
| 20260509223747 | 34 | 225 | 1.6 | 6.4 | 0.00 | 0.03 | 0.03 | 52 | 1005.7 |
| 20260509223417 | 34 | 182 | 0.0 | 3.2 | 0.00 | 0.00 | 0.03 | 52 | 1006.8 |
| 20260509223244 | 34 | 194 | 1.6 | 6.4 | 0.00 | 0.03 | 0.03 | 52 | 1005.8 |
| 20260509222917 | 34 | 169 | 1.6 | 3.2 | 0.00 | 0.00 | 0.03 | 53 | 1006.8 |
| 20260509222744 | 34 | 211 | 0.0 | 1.6 | 0.00 | 0.03 | 0.03 | 53 | 1005.7 |
| 20260509222427 | 33 | 163 | 0.0 | 0.0 | 0.00 | 0.00 | 0.03 | 55 | 1006.8 |
| 20260509222244 | 33 | 163 | 1.6 | 6.4 | 0.00 | 0.03 | 0.03 | 55 | 1005.7 |
| 20260509221916 | 33 | 70 | 0.0 | 0.0 | 0.00 | 0.00 | 0.03 | 54 | 1006.8 |
| 20260509221745 | 33 | 70 | 1.6 | 6.4 | 0.00 | 0.03 | 0.03 | 55 | 1005.5 |
| 20260509221416 | 33 | 51 | 1.6 | 6.4 | 0.00 | 0.00 | 0.03 | 53 | 1006.8 |
| 20260509221240 | 33 | 63 | 1.6 | 4.8 | 0.00 | 0.03 | 0.03 | 53 | 1005.6 |
| 20260509220915 | 33 | 51 | 0.0 | 1.6 | 0.00 | 0.00 | 0.03 | 54 | 1006.8 |
| 20260509220740 | 33 | 51 | 1.6 | 4.8 | 0.00 | 0.03 | 0.03 | 53 | 1005.6 |
| 20260509220416 | 33 | 55 | 1.6 | 1.6 | 0.00 | 0.00 | 0.03 | 54 | 1006.8 |
| 20260509220240 | 33 | 127 | 0.0 | 4.8 | 0.00 | 0.03 | 0.03 | 54 | 1005.6 |
| 20260509215916 | 34 | 67 | 1.6 | 4.8 | 0.00 | 0.00 | 0.03 | 54 | 1006.8 |
| 20260509215740 | 33 | 90 | 0.0 | 4.8 | 0.00 | 0.03 | 0.03 | 55 | 1005.7 |
| 20260509215417 | 33 | 57 | 0.0 | 0.0 | 0.00 | 0.00 | 0.03 | 56 | 1006.8 |
| 20260509215239 | 33 | 57 | 0.0 | 3.2 | 0.00 | 0.03 | 0.03 | 56 | 1005.8 |
| 20260509214915 | 32 | 57 | 0.0 | 0.0 | 0.00 | 0.00 | 0.03 | 55 | 1006.8 |
| 20260509214734 | 32 | 57 | 0.0 | 3.2 | 0.00 | 0.03 | 0.03 | 56 | 1005.7 |
| 20260509214414 | 33 | 56 | 1.6 | 3.2 | 0.00 | 0.00 | 0.03 | 56 | 1006.8 |
| 20260509214234 | 33 | 57 | 0.0 | 3.2 | 0.00 | 0.03 | 0.03 | 55 | 1005.7 |
| 20260509213917 | 33 | 71 | 0.0 | 0.0 | 0.00 | 0.00 | 0.03 | 55 | 1006.8 |
| 20260509213734 | 33 | 71 | 1.6 | 4.8 | 0.00 | 0.03 | 0.03 | 54 | 1005.7 |
| 20260509213416 | 33 | 86 | 0.0 | 0.0 | 0.00 | 0.00 | 0.03 | 55 | 1006.8 |
| 20260509213234 | 33 | 86 | 1.6 | 4.8 | 0.00 | 0.03 | 0.03 | 55 | 1005.8 |
| 20260509212915 | 33 | 84 | 1.6 | 3.2 | 0.00 | 0.00 | 0.03 | 55 | 1006.8 |
| 20260509212732 | 33 | 42 | 1.6 | 4.8 | 0.00 | 0.03 | 0.03 | 55 | 1005.7 |
| 20260509212414 | 33 | 36 | 1.6 | 3.2 | 0.00 | 0.00 | 0.03 | 53 | 1006.8 |
| 20260509212231 | 34 | 37 | 0.0 | 8.0 | 0.00 | 0.03 | 0.03 | 53 | 1005.7 |
| 20260509211913 | 34 | 44 | 1.6 | 1.6 | 0.00 | 0.00 | 0.03 | 52 | 1006.8 |
| 20260509211732 | 34 | 224 | 1.6 | 8.0 | 0.00 | 0.03 | 0.03 | 53 | 1005.8 |
| 20260509211413 | 35 | 349 | 0.0 | 8.0 | 0.00 | 0.00 | 0.03 | 52 | 1006.8 |
| 20260509211232 | 34 | 281 | 1.6 | 8.0 | 0.00 | 0.03 | 0.03 | 52 | 1005.7 |
| 20260509210913 | 35 | 228 | 1.6 | 4.8 | 0.00 | 0.00 | 0.03 | 51 | 1006.8 |
| 20260509210729 | 35 | 289 | 3.2 | 9.7 | 0.00 | 0.03 | 0.03 | 52 | 1005.7 |
| 20260509210414 | 35 | 250 | 1.6 | 9.7 | 0.00 | 0.00 | 0.03 | 51 | 1006.8 |
| 20260509210231 | 35 | 215 | 1.6 | 9.7 | 0.00 | 0.03 | 0.03 | 51 | 1005.8 |
| 20260509205914 | 35 | 244 | 0.0 | 1.6 | 0.00 | 0.00 | 0.03 | 51 | 1007.1 |
| 20260509205731 | 34 | 263 | 1.6 | 6.4 | 0.00 | 0.03 | 0.03 | 52 | 1005.9 |
| 20260509205412 | 34 | 263 | 0.0 | 6.4 | 0.00 | 0.00 | 0.03 | 52 | 1007.1 |
| 20260509205230 | 34 | 221 | 0.0 | 4.8 | 0.00 | 0.03 | 0.03 | 54 | 1005.9 |
| 20260509204942 | 33 | 253 | 0.0 | 3.2 | 0.00 | 0.00 | 0.03 | 53 | 1007.1 |
| 20260509204724 | 33 | 53 | 0.0 | 4.8 | 0.00 | 0.03 | 0.03 | 54 | 1006.0 |
| 20260509204443 | 33 | 53 | 0.0 | 4.8 | 0.00 | 0.00 | 0.03 | 54 | 1007.1 |
| 20260509203941 | 33 | 269 | 1.6 | 1.6 | 0.00 | 0.00 | 0.03 | 54 | 1007.1 |
| 20260509203722 | 33 | 351 | 1.6 | 8.0 | 0.00 | 0.03 | 0.03 | 53 | 1006.1 |
| 20260509203440 | 34 | 32 | 6.4 | 8.0 | 0.00 | 0.00 | 0.03 | 52 | 1007.1 |
| 20260509203219 | 34 | 243 | 0.0 | 4.8 | 0.00 | 0.03 | 0.03 | 54 | 1006.1 |
| 20260509202939 | 34 | 290 | 0.0 | 4.8 | 0.00 | 0.00 | 0.03 | 54 | 1007.5 |
| 20260509202719 | 34 | 222 | 1.6 | 6.4 | 0.00 | 0.03 | 0.03 | 54 | 1006.2 |
| 20260509202443 | 34 | 219 | 0.0 | 3.2 | 0.00 | 0.00 | 0.03 | 53 | 1007.5 |
| 20260509202220 | 33 | 225 | 1.6 | 6.4 | 0.00 | 0.03 | 0.03 | 53 | 1006.3 |
| 20260509201939 | 33 | 263 | 0.0 | 6.4 | 0.00 | 0.00 | 0.03 | 54 | 1007.5 |
| 20260509201721 | 33 | 183 | 1.6 | 6.4 | 0.00 | 0.03 | 0.03 | 54 | 1006.3 |
| 20260509201439 | 33 | 58 | 0.0 | 3.2 | 0.00 | 0.00 | 0.03 | 54 | 1007.5 |
| 20260509200939 | 33 | 319 | 1.6 | 3.2 | 0.00 | 0.00 | 0.03 | 56 | 1007.5 |
| 20260509200720 | 33 | 223 | 1.6 | 6.4 | 0.00 | 0.03 | 0.03 | 55 | 1006.3 |
| 20260509200437 | 33 | 163 | 1.6 | 3.2 | 0.00 | 0.00 | 0.03 | 55 | 1007.5 |
| 20260509195943 | 33 | 254 | 1.6 | 6.4 | 0.00 | 0.00 | 0.03 | 56 | 1007.5 |
| 20260509195719 | 34 | 60 | 1.6 | 11.3 | 0.00 | 0.03 | 0.03 | 57 | 1006.5 |
| 20260509195444 | 34 | 61 | 0.0 | 4.8 | 0.00 | 0.00 | 0.03 | 55 | 1007.8 |
| 20260509195220 | 34 | 188 | 3.2 | 11.3 | 0.00 | 0.03 | 0.03 | 55 | 1006.6 |
| 20260509195010 | 34 | 219 | 3.2 | 3.2 | 0.00 | 0.00 | 0.03 | 56 | 1007.8 |
| 20260509194719 | 33 | 277 | 3.2 | 9.7 | 0.00 | 0.03 | 0.03 | 56 | 1006.6 |
| 20260509194512 | 33 | 148 | 0.0 | 6.4 | 0.00 | 0.00 | 0.03 | 54 | 1007.8 |
| 20260509194219 | 33 | 269 | 1.6 | 9.7 | 0.00 | 0.03 | 0.03 | 55 | 1006.8 |
| 20260509194014 | 33 | 218 | 9.7 | 9.7 | 0.00 | 0.00 | 0.03 | 56 | 1008.1 |
| 20260509193717 | 33 | 71 | 1.6 | 4.8 | 0.00 | 0.03 | 0.03 | 56 | 1006.8 |
| 20260509193512 | 34 | 313 | 4.8 | 4.8 | 0.00 | 0.00 | 0.03 | 55 | 1008.1 |
| 20260509193218 | 34 | 46 | 0.0 | 4.8 | 0.00 | 0.03 | 0.03 | 56 | 1006.9 |
| 20260509193014 | 33 | 250 | 0.0 | 1.6 | 0.00 | 0.00 | 0.03 | 56 | 1008.1 |
| 20260509192717 | 33 | 164 | 1.6 | 4.8 | 0.00 | 0.03 | 0.03 | 57 | 1006.9 |
| 20260509192513 | 33 | 32 | 1.6 | 4.8 | 0.00 | 0.00 | 0.03 | 57 | 1008.1 |
| 20260509192013 | 33 | 84 | 0.0 | 4.8 | 0.00 | 0.00 | 0.03 | 57 | 1008.1 |
| 20260509191713 | 33 | 57 | 1.6 | 4.8 | 0.00 | 0.03 | 0.03 | 57 | 1006.9 |
| 20260509191516 | 33 | 303 | 0.0 | 3.2 | 0.00 | 0.00 | 0.03 | 57 | 1008.1 |
| 20260509191213 | 33 | 242 | 1.6 | 6.4 | 0.00 | 0.03 | 0.03 | 57 | 1007.1 |
| 20260509191012 | 33 | 276 | 1.6 | 4.8 | 0.00 | 0.00 | 0.03 | 57 | 1008.1 |
| 20260509190714 | 33 | 329 | 1.6 | 6.4 | 0.00 | 0.03 | 0.03 | 58 | 1007.1 |
| 20260509190513 | 32 | 267 | 1.6 | 6.4 | 0.00 | 0.00 | 0.03 | 57 | 1008.1 |
| 20260509190212 | 32 | 203 | 0.0 | 3.2 | 0.00 | 0.03 | 0.03 | 59 | 1007.1 |
| 20260509190011 | 32 | 71 | 0.0 | 0.0 | 0.00 | 0.00 | 0.03 | 59 | 1008.5 |
| 20260509185516 | 32 | 53 | 0.0 | 3.2 | 0.00 | 0.00 | 0.03 | 60 | 1008.5 |
| 20260509185208 | 32 | 54 | 1.6 | 8.0 | 0.00 | 0.03 | 0.03 | 61 | 1007.1 |
| 20260509185037 | 32 | 46 | 0.0 | 4.8 | 0.00 | 0.00 | 0.03 | 60 | 1008.5 |
| 20260509184706 | 32 | 36 | 1.6 | 8.0 | 0.00 | 0.03 | 0.03 | 59 | 1007.2 |
| 20260509184543 | 32 | 57 | 1.6 | 3.2 | 0.00 | 0.00 | 0.03 | 60 | 1008.5 |
| 20260509184206 | 32 | 13 | 1.6 | 9.7 | 0.00 | 0.03 | 0.03 | 58 | 1007.2 |
| 20260509184042 | 32 | 57 | 1.6 | 6.4 | 0.00 | 0.00 | 0.03 | 59 | 1008.5 |
| 20260509183705 | 32 | 248 | 1.6 | 9.7 | 0.00 | 0.03 | 0.03 | 60 | 1007.3 |
| 20260509183612 | 32 | 304 | 1.6 | 3.2 | 0.00 | 0.00 | 0.03 | 60 | 1008.5 |
| 20260509183206 | 32 | 41 | 1.6 | 6.4 | 0.00 | 0.03 | 0.03 | 61 | 1007.3 |
| 20260509183113 | 32 | 31 | 3.2 | 4.8 | 0.00 | 0.00 | 0.03 | 61 | 1008.5 |
| 20260509182705 | 31 | 59 | 1.6 | 14.5 | 0.00 | 0.03 | 0.03 | 60 | 1007.4 |
| 20260509182613 | 31 | 59 | 0.0 | 4.8 | 0.00 | 0.00 | 0.03 | 59 | 1008.5 |
| 20260509182205 | 32 | 30 | 1.6 | 14.5 | 0.00 | 0.03 | 0.03 | 59 | 1007.4 |
| 20260509182113 | 32 | 30 | 0.0 | 8.0 | 0.00 | 0.00 | 0.03 | 59 | 1008.5 |
| 20260509181702 | 32 | 110 | 1.6 | 9.7 | 0.00 | 0.03 | 0.03 | 59 | 1007.6 |
| 20260509181612 | 32 | 78 | 1.6 | 9.7 | 0.00 | 0.00 | 0.03 | 59 | 1008.8 |
| 20260509181156 | 32 | 59 | 0.0 | 3.2 | 0.00 | 0.03 | 0.03 | 61 | 1007.6 |
| 20260509181113 | 32 | 60 | 0.0 | 3.2 | 0.00 | 0.00 | 0.03 | 61 | 1008.8 |
| 20260509180648 | 31 | 148 | 1.6 | 4.8 | 0.00 | 0.03 | 0.03 | 64 | 1007.7 |
| 20260509180613 | 31 | 144 | 0.0 | 3.2 | 0.00 | 0.00 | 0.03 | 63 | 1008.8 |
| 20260509180142 | 31 | 355 | 1.6 | 6.4 | 0.00 | 0.03 | 0.03 | 62 | 1007.9 |
| 20260509180110 | 31 | 178 | 3.2 | 4.8 | 0.00 | 0.00 | 0.03 | 63 | 1009.1 |
| 20260509175635 | 30 | 51 | 1.6 | 4.8 | 0.00 | 0.03 | 0.03 | 63 | 1007.9 |
| 20260509175613 | 30 | 74 | 1.6 | 3.2 | 0.00 | 0.00 | 0.03 | 63 | 1009.1 |
| 20260509175129 | 30 | 48 | 1.6 | 6.4 | 0.00 | 0.03 | 0.03 | 64 | 1008.0 |
| 20260509175111 | 30 | 76 | 4.8 | 4.8 | 0.00 | 0.00 | 0.03 | 65 | 1009.1 |
| 20260509174610 | 30 | 63 | 4.8 | 4.8 | 0.00 | 0.00 | 0.03 | 64 | 1009.1 |
| 20260509174123 | 30 | 132 | 1.6 | 6.4 | 0.00 | 0.03 | 0.03 | 65 | 1008.1 |
| 20260509174115 | 30 | 55 | 1.6 | 3.2 | 0.00 | 0.00 | 0.03 | 65 | 1009.1 |
| 20260509173624 | 30 | 63 | 1.6 | 9.7 | 0.00 | 0.03 | 0.03 | 65 | 1008.3 |
| 20260509173614 | 30 | 75 | 3.2 | 4.8 | 0.00 | 0.00 | 0.03 | 65 | 1009.5 |
| 20260509173124 | 30 | 84 | 1.6 | 9.7 | 0.00 | 0.03 | 0.03 | 67 | 1008.3 |
| 20260509173115 | 30 | 341 | 0.0 | 4.8 | 0.00 | 0.00 | 0.03 | 67 | 1009.5 |
| 20260509172611 | 30 | 310 | 0.0 | 0.0 | 0.00 | 0.00 | 0.03 | 66 | 1009.5 |
| 20260509172122 | 30 | 46 | 1.6 | 8.0 | 0.00 | 0.03 | 0.03 | 66 | 1008.4 |
| 20260509172112 | 30 | 46 | 0.0 | 6.4 | 0.00 | 0.00 | 0.03 | 65 | 1009.5 |
| 20260509171621 | 30 | 23 | 1.6 | 6.4 | 0.00 | 0.03 | 0.03 | 66 | 1008.3 |
| 20260509171613 | 30 | 23 | 0.0 | 3.2 | 0.00 | 0.00 | 0.03 | 66 | 1009.5 |
| 20260509171119 | 30 | 52 | 1.6 | 8.0 | 0.00 | 0.03 | 0.03 | 67 | 1008.3 |
| 20260509171112 | 30 | 35 | 0.0 | 1.6 | 0.00 | 0.00 | 0.03 | 67 | 1009.5 |
| 20260509170610 | 30 | 248 | 0.0 | 4.8 | 0.00 | 0.00 | 0.03 | 66 | 1009.5 |
| 20260509170119 | 29 | 42 | 1.6 | 4.8 | 0.00 | 0.03 | 0.03 | 67 | 1008.3 |
| 20260509170111 | 29 | 42 | 0.0 | 1.6 | 0.00 | 0.00 | 0.03 | 67 | 1009.5 |
| 20260509165614 | 29 | 69 | 1.6 | 4.8 | 0.00 | 0.00 | 0.03 | 65 | 1009.5 |
| 20260509165210 | 29 | 15 | 3.2 | 8.0 | 0.00 | 0.00 | 0.03 | 68 | 1009.8 |
| 20260509164714 | 29 | 56 | 0.0 | 1.6 | 0.00 | 0.00 | 0.03 | 69 | 1009.5 |
| 20260509164618 | 29 | 56 | 0.0 | 4.8 | 0.00 | 0.03 | 0.03 | 69 | 1008.5 |
| 20260509164213 | 28 | 296 | 0.0 | 1.6 | 0.00 | 0.00 | 0.03 | 71 | 1009.5 |
| 20260509164118 | 28 | 295 | 1.6 | 4.8 | 0.00 | 0.03 | 0.03 | 71 | 1008.5 |
| 20260509163714 | 28 | 240 | 0.0 | 1.6 | 0.00 | 0.00 | 0.03 | 70 | 1009.5 |
| 20260509163617 | 28 | 121 | 1.6 | 6.4 | 0.00 | 0.03 | 0.03 | 70 | 1008.5 |
| 20260509163212 | 29 | 26 | 1.6 | 6.4 | 0.00 | 0.00 | 0.03 | 68 | 1009.5 |
| 20260509163117 | 29 | 26 | 1.6 | 6.4 | 0.00 | 0.03 | 0.03 | 68 | 1008.3 |
| 20260509162713 | 30 | 56 | 1.6 | 1.6 | 0.00 | 0.00 | 0.03 | 70 | 1009.1 |
| 20260509162617 | 29 | 56 | 0.0 | 1.6 | 0.00 | 0.03 | 0.03 | 71 | 1008.2 |
| 20260509162212 | 29 | 56 | 0.0 | 1.6 | 0.00 | 0.00 | 0.03 | 70 | 1009.1 |
| 20260509162117 | 29 | 57 | 0.0 | 3.2 | 0.00 | 0.03 | 0.03 | 71 | 1007.8 |
| 20260509161711 | 28 | 57 | 0.0 | 1.6 | 0.00 | 0.00 | 0.03 | 70 | 1008.5 |
| 20260509161610 | 28 | 57 | 1.6 | 4.8 | 0.00 | 0.03 | 0.03 | 70 | 1007.5 |
| 20260509161213 | 28 | 215 | 0.0 | 4.8 | 0.00 | 0.00 | 0.03 | 71 | 1008.5 |
| 20260509161103 | 28 | 206 | 1.6 | 4.8 | 0.00 | 0.03 | 0.03 | 71 | 1007.3 |
| 20260509160713 | 28 | 238 | 0.0 | 3.2 | 0.00 | 0.00 | 0.03 | 73 | 1008.5 |
| 20260509160558 | 28 | 238 | 0.0 | 4.8 | 0.00 | 0.03 | 0.03 | 73 | 1007.5 |
| 20260509160212 | 28 | 227 | 1.6 | 1.6 | 0.00 | 0.00 | 0.03 | 74 | 1008.8 |
| 20260509155713 | 28 | 27 | 1.6 | 1.6 | 0.00 | 0.00 | 0.03 | 74 | 1008.5 |
| 20260509155551 | 28 | 10 | 1.6 | 6.4 | 0.00 | 0.03 | 0.03 | 74 | 1007.5 |
| 20260509155213 | 28 | 302 | 1.6 | 3.2 | 0.00 | 0.00 | 0.03 | 75 | 1008.8 |
| 20260509154712 | 27 | 218 | 0.0 | 6.4 | 0.00 | 0.00 | 0.03 | 77 | 1008.8 |
| 20260509154551 | 27 | 221 | 3.2 | 8.0 | 0.00 | 0.03 | 0.03 | 77 | 1007.7 |
| 20260509154211 | 27 | 232 | 3.2 | 3.2 | 0.00 | 0.00 | 0.03 | 80 | 1009.1 |
| 20260509154050 | 27 | 322 | 1.6 | 8.0 | 0.00 | 0.03 | 0.03 | 80 | 1007.8 |
| 20260509153720 | 26 | 233 | 0.0 | 3.2 | 0.00 | 0.00 | 0.03 | 82 | 1009.1 |
| 20260509153219 | 26 | 279 | 0.0 | 3.2 | 0.00 | 0.00 | 0.03 | 83 | 1009.1 |
| 20260509153049 | 26 | 246 | 3.2 | 9.7 | 0.00 | 0.03 | 0.03 | 83 | 1008.1 |
| 20260509152723 | 26 | 246 | 1.6 | 6.4 | 0.00 | 0.00 | 0.03 | 84 | 1009.1 |
| 20260509152219 | 25 | 236 | 1.6 | 9.7 | 0.00 | 0.00 | 0.03 | 85 | 1009.1 |
| 20260509151720 | 25 | 282 | 0.0 | 1.6 | 0.00 | 0.00 | 0.03 | 88 | 1009.1 |
| 20260509151218 | 25 | 243 | 4.8 | 11.3 | 0.00 | 0.00 | 0.03 | 87 | 1009.1 |
| 20260509151045 | 25 | 207 | 4.8 | 14.5 | 0.00 | 0.03 | 0.03 | 88 | 1007.8 |
| 20260509150721 | 25 | 263 | 6.4 | 11.3 | 0.00 | 0.00 | 0.03 | 88 | 1008.8 |
| 20260509150546 | 25 | 205 | 4.8 | 14.5 | 0.00 | 0.03 | 0.03 | 88 | 1007.5 |
| 20260509150219 | 25 | 272 | 9.7 | 12.9 | 0.00 | 0.00 | 0.03 | 89 | 1008.8 |
| 20260509150043 | 25 | 216 | 3.2 | 9.7 | 0.00 | 0.03 | 0.03 | 89 | 1007.7 |
| 20260509145719 | 25 | 231 | 0.0 | 4.8 | 0.00 | 0.00 | 0.03 | 90 | 1009.1 |
| 20260509145543 | 25 | 164 | 3.2 | 9.7 | 0.00 | 0.03 | 0.03 | 90 | 1007.8 |
| 20260509145219 | 25 | 234 | 1.6 | 6.4 | 0.00 | 0.00 | 0.03 | 91 | 1008.8 |
| 20260509145044 | 25 | 229 | 3.2 | 9.7 | 0.00 | 0.03 | 0.03 | 91 | 1007.8 |
| 20260509144719 | 25 | 225 | 1.6 | 6.4 | 0.00 | 0.00 | 0.03 | 91 | 1008.8 |
| 20260509144543 | 25 | 226 | 3.2 | 8.0 | 0.00 | 0.03 | 0.03 | 92 | 1007.7 |
| 20260509144218 | 25 | 224 | 1.6 | 8.0 | 0.00 | 0.00 | 0.03 | 92 | 1009.1 |
| 20260509144043 | 25 | 216 | 1.6 | 6.4 | 0.00 | 0.03 | 0.03 | 92 | 1008.0 |
| 20260509143719 | 25 | 233 | 3.2 | 4.8 | 0.00 | 0.00 | 0.03 | 92 | 1009.1 |
| 20260509143544 | 25 | 208 | 0.0 | 6.4 | 0.00 | 0.03 | 0.03 | 92 | 1008.3 |
| 20260509143218 | 25 | 261 | 1.6 | 6.4 | 0.00 | 0.00 | 0.03 | 93 | 1009.8 |
| 20260509143038 | 25 | 253 | 0.0 | 1.6 | 0.00 | 0.03 | 0.03 | 93 | 1008.6 |
| 20260509142720 | 25 | 252 | 0.0 | 1.6 | 0.00 | 0.00 | 0.03 | 92 | 1009.8 |
| 20260509142532 | 25 | 213 | 0.0 | 3.2 | 0.00 | 0.03 | 0.03 | 92 | 1008.6 |
| 20260509142219 | 25 | 229 | 0.0 | 0.0 | 0.00 | 0.00 | 0.03 | 92 | 1009.8 |
| 20260509142026 | 25 | 229 | 0.0 | 3.2 | 0.00 | 0.03 | 0.03 | 92 | 1008.5 |
| 20260509141718 | 25 | 222 | 0.0 | 0.0 | 0.00 | 0.00 | 0.03 | 92 | 1009.8 |
| 20260509141520 | 25 | 217 | 0.0 | 0.0 | 0.00 | 0.03 | 0.03 | 92 | 1008.6 |
| 20260509141218 | 25 | 210 | 0.0 | 0.0 | 0.00 | 0.00 | 0.03 | 93 | 1009.8 |
| 20260509141014 | 24 | 211 | 0.0 | 0.0 | 0.00 | 0.03 | 0.03 | 93 | 1008.5 |
| 20260509140718 | 25 | 211 | 0.0 | 0.0 | 0.00 | 0.00 | 0.03 | 93 | 1009.8 |
| 20260509140510 | 24 | 211 | 0.0 | 0.0 | 0.00 | 0.03 | 0.03 | 93 | 1008.5 |
| 20260509140222 | 24 | 205 | 0.0 | 0.0 | 0.00 | 0.00 | 0.03 | 93 | 1009.5 |
| 20260509140004 | 24 | 205 | 0.0 | 0.0 | 0.00 | 0.03 | 0.03 | 93 | 1008.4 |
| 20260509135717 | 24 | 205 | 0.0 | 0.0 | 0.00 | 0.00 | 0.03 | 94 | 1009.5 |
| 20260509135457 | 24 | 205 | 0.0 | 0.0 | 0.00 | 0.03 | 0.03 | 93 | 1008.4 |
| 20260509135219 | 24 | 205 | 0.0 | 0.0 | 0.00 | 0.00 | 0.03 | 93 | 1009.5 |
| 20260509134718 | 24 | 203 | 0.0 | 0.0 | 0.00 | 0.00 | 0.03 | 94 | 1009.8 |
| 20260509134444 | 24 | 203 | 0.0 | 3.2 | 0.00 | 0.03 | 0.03 | 93 | 1008.5 |
| 20260509134218 | 24 | 205 | 0.0 | 0.0 | 0.00 | 0.00 | 0.03 | 93 | 1009.8 |
| 20260509133938 | 24 | 205 | 0.0 | 3.2 | 0.00 | 0.03 | 0.03 | 93 | 1008.5 |
| 20260509133717 | 23 | 223 | 1.6 | 3.2 | 0.00 | 0.00 | 0.03 | 93 | 1009.5 |
| 20260509133216 | 23 | 185 | 0.0 | 0.0 | 0.00 | 0.00 | 0.03 | 93 | 1009.5 |
| 20260509132926 | 23 | 185 | 0.0 | 0.0 | 0.00 | 0.03 | 0.03 | 93 | 1008.3 |
| 20260509132717 | 23 | 182 | 0.0 | 0.0 | 0.00 | 0.00 | 0.03 | 93 | 1009.5 |
| 20260509132420 | 23 | 183 | 0.0 | 0.0 | 0.00 | 0.03 | 0.03 | 93 | 1008.1 |
| 20260509132215 | 23 | 153 | 0.0 | 0.0 | 0.00 | 0.00 | 0.03 | 93 | 1009.1 |
| 20260509131716 | 23 | 153 | 0.0 | 0.0 | 0.00 | 0.00 | 0.03 | 93 | 1009.1 |
| 20260509131408 | 23 | 153 | 0.0 | 0.0 | 0.00 | 0.03 | 0.03 | 93 | 1008.0 |
| 20260509131241 | 23 | 153 | 0.0 | 0.0 | 0.00 | 0.00 | 0.03 | 93 | 1009.1 |
| 20260509130903 | 23 | 153 | 0.0 | 0.0 | 0.00 | 0.03 | 0.03 | 93 | 1007.8 |
| 20260509130735 | 23 | 153 | 0.0 | 0.0 | 0.00 | 0.00 | 0.03 | 93 | 1009.1 |
| 20260509130358 | 23 | 153 | 0.0 | 1.6 | 0.00 | 0.05 | 0.03 | 93 | 1008.0 |
| 20260509130244 | 23 | 153 | 0.0 | 0.0 | 0.00 | 0.00 | 0.03 | 93 | 1009.1 |
| 20260509125850 | 23 | 168 | 0.0 | 3.2 | 0.00 | 0.05 | 0.03 | 93 | 1008.1 |
| 20260509125813 | 23 | 52 | 0.0 | 1.6 | 0.00 | 0.00 | 0.03 | 93 | 1009.1 |
| 20260509125344 | 23 | 53 | 0.0 | 6.4 | 0.00 | 0.05 | 0.03 | 93 | 1008.1 |
| 20260509125313 | 23 | 11 | 0.0 | 0.0 | 0.00 | 0.00 | 0.03 | 93 | 1009.1 |
| 20260509124838 | 23 | 12 | 0.0 | 6.4 | 0.00 | 0.05 | 0.03 | 93 | 1008.1 |
| 20260509124814 | 23 | 320 | 0.0 | 6.4 | 0.00 | 0.00 | 0.03 | 93 | 1009.1 |
| 20260509124332 | 23 | 269 | 1.6 | 4.8 | 0.00 | 0.05 | 0.03 | 93 | 1008.1 |
| 20260509124313 | 23 | 270 | 0.0 | 1.6 | 0.00 | 0.00 | 0.03 | 93 | 1009.1 |
| 20260509123826 | 23 | 254 | 1.6 | 9.7 | 0.00 | 0.05 | 0.03 | 94 | 1008.2 |
| 20260509123812 | 23 | 273 | 1.6 | 3.2 | 0.00 | 0.00 | 0.03 | 94 | 1009.1 |
| 20260509123322 | 23 | 270 | 1.6 | 9.7 | 0.00 | 0.05 | 0.03 | 94 | 1008.2 |
| 20260509123317 | 23 | 294 | 0.0 | 9.7 | 0.00 | 0.00 | 0.03 | 94 | 1009.1 |
| 20260509122814 | 23 | 32 | 3.2 | 14.5 | 0.00 | 0.05 | 0.03 | 94 | 1008.2 |
| 20260509122311 | 23 | 30 | 9.7 | 14.5 | 0.00 | 0.00 | 0.03 | 95 | 1009.5 |
| 20260509122308 | 23 | 32 | 3.2 | 14.5 | 0.03 | 0.05 | 0.03 | 95 | 1008.3 |
| 20260509121812 | 23 | 279 | 1.6 | 8.0 | 0.00 | 0.00 | 0.03 | 94 | 1009.1 |
| 20260509121802 | 23 | 261 | 4.8 | 12.9 | 0.03 | 0.05 | 0.03 | 94 | 1008.0 |
| 20260509121313 | 23 | 223 | 3.2 | 11.3 | 0.00 | 0.00 | 0.03 | 96 | 1007.8 |
| 20260509121257 | 23 | 223 | 3.2 | 12.9 | 0.03 | 0.05 | 0.03 | 95 | 1006.5 |
| 20260509120814 | 23 | 190 | 3.2 | 8.0 | 0.00 | 0.00 | 0.03 | 96 | 1006.8 |
| 20260509120750 | 23 | 229 | 3.2 | 11.3 | 0.03 | 0.05 | 0.03 | 96 | 1005.6 |
| 20260509120312 | 23 | 242 | 1.6 | 9.7 | 0.00 | 0.00 | 0.03 | 96 | 1006.4 |
| 20260509120244 | 23 | 196 | 4.8 | 11.3 | 0.03 | 0.05 | 0.03 | 96 | 1005.1 |
| 20260509115813 | 23 | 171 | 6.4 | 8.0 | 0.00 | 0.00 | 0.03 | 97 | 1005.8 |
| 20260509115738 | 23 | 156 | 4.8 | 12.9 | 0.03 | 0.05 | 0.03 | 97 | 1004.7 |
| 20260509115314 | 23 | 211 | 6.4 | 9.7 | 0.00 | 0.00 | 0.03 | 97 | 1006.1 |
| 20260509115233 | 23 | 157 | 6.4 | 14.5 | 0.03 | 0.05 | 0.03 | 97 | 1005.0 |
| 20260509114810 | 23 | 238 | 3.2 | 14.5 | 0.00 | 0.00 | 0.03 | 97 | 1006.4 |
| 20260509114726 | 23 | 257 | 4.8 | 14.5 | 0.03 | 0.05 | 0.03 | 97 | 1005.3 |
| 20260509114337 | 23 | 250 | 4.8 | 11.3 | 0.00 | 0.00 | 0.03 | 97 | 1006.4 |
| 20260509114220 | 23 | 121 | 3.2 | 11.3 | 0.03 | 0.05 | 0.03 | 97 | 1005.5 |
| 20260509113843 | 23 | 113 | 6.4 | 8.0 | 0.00 | 0.00 | 0.03 | 97 | 1006.8 |
| 20260509113716 | 23 | 163 | 1.6 | 8.0 | 0.03 | 0.05 | 0.03 | 97 | 1005.9 |
| 20260509113338 | 23 | 255 | 0.0 | 3.2 | 0.00 | 0.00 | 0.03 | 97 | 1007.5 |
| 20260509113207 | 23 | 262 | 1.6 | 6.4 | 0.03 | 0.05 | 0.03 | 97 | 1006.4 |
| 20260509112842 | 23 | 209 | 4.8 | 4.8 | 0.00 | 0.00 | 0.03 | 97 | 1008.5 |
| 20260509112703 | 23 | 254 | 0.0 | 4.8 | 0.03 | 0.05 | 0.03 | 97 | 1007.9 |
| 20260509112341 | 23 | 167 | 0.0 | 1.6 | 0.00 | 0.00 | 0.03 | 97 | 1009.5 |
| 20260509111840 | 23 | 91 | 1.6 | 1.6 | 0.00 | 0.00 | 0.00 | 97 | 1010.2 |
| 20260509111650 | 23 | 202 | 3.2 | 16.1 | 0.00 | 0.03 | 0.00 | 97 | 1009.0 |
| 20260509111340 | 23 | 252 | 1.6 | 8.0 | 0.00 | 0.00 | 0.00 | 97 | 1010.2 |
| 20260509111144 | 23 | 271 | 3.2 | 16.1 | 0.00 | 0.03 | 0.00 | 97 | 1008.7 |
| 20260509110836 | 23 | 240 | 1.6 | 16.1 | 0.00 | 0.00 | 0.00 | 97 | 1009.5 |
| 20260509110638 | 23 | 229 | 3.2 | 9.7 | 0.00 | 0.03 | 0.00 | 97 | 1008.3 |
| 20260509110342 | 23 | 221 | 0.0 | 3.2 | 0.00 | 0.00 | 0.00 | 97 | 1009.1 |
| 20260509110132 | 23 | 171 | 3.2 | 9.7 | 0.00 | 0.03 | 0.00 | 97 | 1008.2 |
| 20260509105910 | 23 | 344 | 0.0 | 9.7 | 0.00 | 0.00 | 0.00 | 97 | 1009.5 |
| 20260509105626 | 23 | 204 | 3.2 | 9.7 | 0.00 | 0.03 | 0.00 | 98 | 1008.2 |
| 20260509105410 | 23 | 217 | 1.6 | 4.8 | 0.00 | 0.00 | 0.00 | 98 | 1009.1 |
| 20260509104912 | 23 | 197 | 6.4 | 6.4 | 0.00 | 0.00 | 0.00 | 97 | 1008.8 |
| 20260509104412 | 23 | 47 | 6.4 | 6.4 | 0.00 | 0.00 | 0.00 | 97 | 1009.1 |
| 20260509104109 | 23 | 348 | 0.0 | 3.2 | 0.00 | 0.03 | 0.00 | 97 | 1007.8 |
| 20260509103935 | 23 | 326 | 1.6 | 1.6 | 0.00 | 0.00 | 0.00 | 97 | 1008.5 |
| 20260509103441 | 23 | 221 | 0.0 | 1.6 | 0.00 | 0.00 | 0.00 | 97 | 1008.5 |
| 20260509102942 | 23 | 161 | 0.0 | 0.0 | 0.00 | 0.00 | 0.00 | 97 | 1008.5 |
| 20260509102550 | 23 | 161 | 0.0 | 1.6 | 0.00 | 0.03 | 0.00 | 97 | 1007.2 |
| 20260509102437 | 23 | 161 | 0.0 | 0.0 | 0.00 | 0.00 | 0.00 | 97 | 1008.5 |
| 20260509102044 | 23 | 161 | 0.0 | 1.6 | 0.00 | 0.03 | 0.00 | 97 | 1007.4 |
| 20260509101938 | 23 | 161 | 1.6 | 1.6 | 0.00 | 0.00 | 0.00 | 97 | 1008.5 |
| 20260509101539 | 23 | 159 | 0.0 | 1.6 | 0.00 | 0.03 | 0.00 | 97 | 1007.4 |
| 20260509101442 | 23 | 160 | 0.0 | 0.0 | 0.00 | 0.00 | 0.00 | 97 | 1008.5 |
| 20260509101033 | 23 | 159 | 0.0 | 1.6 | 0.00 | 0.03 | 0.00 | 97 | 1007.4 |
| 20260509100942 | 23 | 158 | 0.0 | 1.6 | 0.00 | 0.00 | 0.00 | 97 | 1008.5 |
| 20260509100526 | 23 | 158 | 0.0 | 1.6 | 0.00 | 0.03 | 0.00 | 97 | 1007.5 |
| 20260509100442 | 23 | 158 | 0.0 | 0.0 | 0.00 | 0.00 | 0.00 | 97 | 1008.5 |
| 20260509100020 | 23 | 91 | 0.0 | 1.6 | 0.00 | 0.03 | 0.00 | 97 | 1007.4 |
| 20260509095942 | 23 | 91 | 0.0 | 1.6 | 0.00 | 0.00 | 0.00 | 97 | 1008.5 |
| 20260509095514 | 23 | 88 | 0.0 | 1.6 | 0.00 | 0.03 | 0.00 | 97 | 1007.0 |
| 20260509095436 | 23 | 88 | 0.0 | 1.6 | 0.00 | 0.00 | 0.00 | 97 | 1008.1 |
| 20260509095008 | 23 | 68 | 0.0 | 1.6 | 0.00 | 0.03 | 0.00 | 97 | 1006.9 |
| 20260509094937 | 23 | 68 | 0.0 | 0.0 | 0.00 | 0.00 | 0.00 | 97 | 1008.1 |
| 20260509094502 | 23 | 68 | 0.0 | 1.6 | 0.00 | 0.03 | 0.00 | 97 | 1006.9 |
| 20260509094439 | 23 | 69 | 0.0 | 0.0 | 0.00 | 0.00 | 0.00 | 97 | 1008.1 |
| 20260509093957 | 23 | 69 | 0.0 | 1.6 | 0.00 | 0.03 | 0.00 | 97 | 1006.9 |
| 20260509093939 | 23 | 69 | 0.0 | 0.0 | 0.00 | 0.00 | 0.00 | 97 | 1008.1 |
| 20260509093449 | 23 | 69 | 0.0 | 1.6 | 0.00 | 0.03 | 0.00 | 97 | 1007.0 |
| 20260509093443 | 23 | 69 | 0.0 | 0.0 | 0.00 | 0.00 | 0.00 | 97 | 1008.1 |
| 20260509092945 | 23 | 69 | 0.0 | 1.6 | 0.00 | 0.03 | 0.00 | 97 | 1007.0 |
| 20260509092940 | 23 | 69 | 0.0 | 0.0 | 0.00 | 0.00 | 0.00 | 97 | 1008.1 |
| 20260509092441 | 23 | 68 | 0.0 | 0.0 | 0.00 | 0.00 | 0.00 | 97 | 1008.1 |
| 20260509092438 | 23 | 68 | 0.0 | 0.0 | 0.00 | 0.03 | 0.00 | 97 | 1007.0 |
| 20260509091940 | 23 | 68 | 0.0 | 0.0 | 0.00 | 0.00 | 0.00 | 97 | 1008.1 |
| 20260509091441 | 23 | 67 | 0.0 | 0.0 | 0.00 | 0.00 | 0.00 | 97 | 1008.1 |
| 20260509090942 | 23 | 68 | 0.0 | 0.0 | 0.00 | 0.00 | 0.00 | 97 | 1007.8 |
| 20260509090922 | 23 | 68 | 0.0 | 0.0 | 0.00 | 0.03 | 0.00 | 97 | 1006.7 |
| 20260509090514 | 23 | 68 | 0.0 | 0.0 | 0.00 | 0.00 | 0.00 | 97 | 1008.1 |
| 20260509090413 | 23 | 68 | 0.0 | 1.6 | 0.00 | 0.03 | 0.00 | 97 | 1006.7 |
| 20260509090013 | 23 | 68 | 0.0 | 1.6 | 0.00 | 0.00 | 0.00 | 97 | 1007.8 |
| 20260509085908 | 23 | 68 | 0.0 | 1.6 | 0.00 | 0.03 | 0.00 | 97 | 1006.9 |
| 20260509085510 | 23 | 48 | 0.0 | 1.6 | 0.00 | 0.00 | 0.00 | 97 | 1008.1 |
| 20260509085402 | 23 | 48 | 0.0 | 1.6 | 0.00 | 0.03 | 0.00 | 97 | 1006.9 |
| 20260509085012 | 23 | 47 | 0.0 | 0.0 | 0.00 | 0.00 | 0.00 | 97 | 1008.1 |
| 20260509084857 | 23 | 47 | 0.0 | 0.0 | 0.00 | 0.03 | 0.00 | 97 | 1006.8 |
| 20260509084516 | 23 | 47 | 0.0 | 0.0 | 0.00 | 0.00 | 0.00 | 97 | 1008.1 |
| 20260509084349 | 23 | 47 | 0.0 | 0.0 | 0.00 | 0.03 | 0.00 | 97 | 1006.8 |
| 20260509084018 | 23 | 47 | 0.0 | 0.0 | 0.00 | 0.00 | 0.00 | 97 | 1007.8 |
| 20260509083844 | 23 | 47 | 0.0 | 0.0 | 0.00 | 0.03 | 0.00 | 97 | 1006.9 |
| 20260509083516 | 23 | 47 | 0.0 | 0.0 | 0.00 | 0.00 | 0.00 | 97 | 1008.1 |
| 20260509083338 | 23 | 47 | 0.0 | 0.0 | 0.00 | 0.03 | 0.00 | 97 | 1006.7 |
| 20260509083017 | 23 | 47 | 0.0 | 0.0 | 0.00 | 0.00 | 0.00 | 97 | 1007.8 |
| 20260509082832 | 23 | 47 | 0.0 | 1.6 | 0.00 | 0.03 | 0.00 | 97 | 1006.6 |
| 20260509082514 | 23 | 47 | 0.0 | 0.0 | 0.00 | 0.00 | 0.00 | 97 | 1007.8 |
| 20260509082328 | 23 | 47 | 0.0 | 1.6 | 0.00 | 0.03 | 0.00 | 97 | 1006.6 |
| 20260509082017 | 23 | 48 | 0.0 | 1.6 | 0.00 | 0.00 | 0.00 | 97 | 1007.8 |
| 20260509081821 | 23 | 49 | 0.0 | 1.6 | 0.00 | 0.03 | 0.00 | 97 | 1006.7 |
| 20260509081515 | 23 | 323 | 0.0 | 0.0 | 0.00 | 0.00 | 0.00 | 97 | 1007.8 |
| 20260509081315 | 23 | 323 | 0.0 | 1.6 | 0.00 | 0.03 | 0.00 | 97 | 1006.6 |
| 20260509081016 | 23 | 72 | 0.0 | 0.0 | 0.00 | 0.00 | 0.00 | 97 | 1007.8 |
| 20260509080515 | 23 | 72 | 0.0 | 0.0 | 0.00 | 0.00 | 0.00 | 97 | 1007.8 |
| 20260509080302 | 23 | 72 | 0.0 | 1.6 | 0.00 | 0.03 | 0.00 | 97 | 1006.8 |
| 20260509080015 | 23 | 28 | 0.0 | 1.6 | 0.00 | 0.00 | 0.00 | 97 | 1008.1 |
| 20260509075542 | 22 | 26 | 0.0 | 1.6 | 0.00 | 0.00 | 0.00 | 97 | 1007.8 |
| 20260509075035 | 22 | 26 | 0.0 | 0.0 | 0.00 | 0.00 | 0.00 | 97 | 1008.1 |
| 20260509074744 | 22 | 26 | 0.0 | 1.6 | 0.00 | 0.03 | 0.00 | 96 | 1006.9 |
| 20260509074542 | 22 | 28 | 0.0 | 1.6 | 0.00 | 0.00 | 0.00 | 96 | 1008.1 |
| 20260509074238 | 22 | 28 | 0.0 | 1.6 | 0.00 | 0.03 | 0.00 | 96 | 1007.1 |
| 20260509074116 | 22 | 28 | 0.0 | 0.0 | 0.00 | 0.00 | 0.00 | 96 | 1008.5 |
| 20260509073613 | 22 | 28 | 0.0 | 0.0 | 0.00 | 0.00 | 0.00 | 96 | 1008.5 |
| 20260509073226 | 22 | 28 | 0.0 | 0.0 | 0.00 | 0.03 | 0.00 | 96 | 1007.4 |
| 20260509073113 | 22 | 28 | 0.0 | 0.0 | 0.00 | 0.00 | 0.00 | 96 | 1008.5 |